User: anonymous   Login
Location: Unspecified
(0.0000°N, 0.0000°E)
Time: 03:26:55
(UTC+00:00)
Language:

PICODRAGON - Orbit

View from above orbital plane
View from above orbital plane
View from above satellite
View from above satellite

Ground track
Ground track

The orbit is defined by the following mean orbital elements,

1 39413U 98067DB  14059.46000733  .24423758  13053-4  20830-3 0  9999
2 39413 051.7296 265.3968 0033589 042.8845 321.3539 16.48564713 15816
Epoch (UTC): 28 February 2014 11:02:24
Eccentricity: 0.0033589
inclination: 51.7296°
perigee height: 121 km
apogee height: 165 km
right ascension of ascending node: 265.3968°
argument of perigee: 42.8845°
revolutions per day: 16.48564713
mean anomaly at epoch: 321.3539°

The dashed part of the orbit path shows where the satellite is in the earth's shadow,  

DLR